Flag for Germany Weather past 2 weeks in Hannover, Lower Saxony, Germany

Now
54 °F

Cool.


Feels Like: 54 °F
Forecast: 62 / 90 °F
Wind: 2 mph from North

Location: Hannover

Current Time: Aug 5, 2015 at 6:24:59 AM

Latest Report: Aug 5, 2015 at 5:50 AM


Visibility: 2 mi

Pressure: 30.09 "Hg

Humidity: 100%

Dew point: 54 °F

Location of HannoverLocation

Historic Weather in Hannover — Graph

°F

Hannover temperature yesterday

Maximum temperature yesterday: 88 °F (at 11:50 AM)
Minimum temperature yesterday: 61 °F (at 11:20 PM)
Average temperature yesterday: 72 °F

Past Weeks' High & Low Weather Summary

 TemperatureHumidityPressure
High90 °F (Aug 3, 4:50 PM)100% (Jul 21, 6:50 AM)30.15 "Hg (Jul 21, 6:50 AM)
Low46 °F (Aug 1, 3:20 AM)28% (Aug 2, 5:20 PM)29.47 "Hg (Jul 25, 12:50 PM)
Average64 °F71%29.87 "Hg
* Reported Jul 21 4:20 AM — Aug 5 4:50 AM, Hannover, Weather by CustomWeather, © 2015

Note: Actual official high and low records may vary slightly from our data, if they occured in-between our weather recording intervals... More about our weather records

Advertising

Hannover weather history for previous 24 hours

 ConditionsComfort  
Time TempWeatherWind HumidityBarometerVisibility
4:50 AM
Wed, Aug 5
55 °FCool.3 mph100%30.09 "Hg1 mi
4:20 AM55 °FCool.2 mph100%30.09 "Hg2 mi
3:50 AM55 °FFog.2 mph100%30.07 "Hg2 mi
3:20 AM57 °FFog.3 mph100%30.07 "Hg4 mi
2:50 AM57 °FFog.3 mph100%30.07 "Hg4 mi
2:20 AM59 °FPassing clouds.5 mph94%30.07 "HgN/A
1:50 AM59 °FPassing clouds.6 mph94%30.07 "HgN/A
1:20 AM59 °FPassing clouds.7 mph100%30.07 "HgN/A
12:50 AM59 °FPassing clouds.6 mph94%30.07 "HgN/A
12:20 AM61 °FPassing clouds.6 mph94%30.04 "HgN/A
11:50 PM
Tue, Aug 4
61 °FPassing clouds.7 mph94%30.04 "HgN/A
11:20 PM61 °FPassing clouds.8 mph94%30.04 "Hg6 mi
10:50 PM63 °FLight rain. Partly cloudy.6 mph94%30.01 "Hg6 mi
10:20 PM63 °FLight rain. Partly cloudy.10 mph94%30.01 "HgN/A
9:50 PM63 °FLight rain. Partly sunny.16 mph94%30.01 "HgN/A
9:20 PM64 °FLight rain. Partly sunny.16 mph88%29.98 "HgN/A
8:50 PM66 °FScattered showers. Broken clouds.10 mph94%29.95 "HgN/A
8:20 PM66 °FBroken clouds.8 mph94%29.95 "HgN/A
7:50 PM68 °FPartly sunny.8 mph88%29.95 "HgN/A
7:20 PM68 °FPartly sunny.9 mph88%29.95 "HgN/A
6:50 PM68 °FPartly sunny.7 mph88%29.92 "HgN/A
6:20 PM68 °FPartly sunny.5 mph88%29.95 "HgN/A
5:50 PM66 °FLight rain. Partly sunny.7 mph94%29.92 "HgN/A
5:20 PM73 °FSunny.18 mph65%29.92 "Hg10 mi
4:50 PM75 °FSunny.21 mph61%29.89 "Hg10 mi
4:20 PM77 °FPassing clouds.17 mph57%29.86 "HgN/A
3:50 PM81 °FBroken clouds.21 mph51%29.86 "HgN/A
3:20 PM79 °FScattered showers. Broken clouds.20 mph48%29.86 "HgN/A
2:50 PM82 °FSprinkles. Clear.20 mph45%29.83 "HgN/A
2:20 PM84 °FSunny.18 mph43%29.83 "Hg10 mi
1:50 PM86 °FPassing clouds.9 mph40%29.83 "HgN/A
1:20 PM88 °FPassing clouds.9 mph38%29.83 "HgN/A
12:50 PM88 °FPassing clouds.10 mph38%29.83 "HgN/A
12:20 PM88 °FPassing clouds.10 mph38%29.83 "HgN/A
11:50 AM88 °FSunny.12 mph38%29.83 "Hg10 mi
11:20 AM86 °FPassing clouds.10 mph40%29.83 "HgN/A
10:50 AM86 °FSunny.9 mph43%29.86 "Hg10 mi
10:20 AM82 °FPassing clouds.10 mph48%29.86 "HgN/A
9:50 AM81 °FSunny.9 mph51%29.86 "Hg10 mi
9:20 AM79 °FSunny.10 mph54%29.86 "Hg10 mi
8:50 AM77 °FSunny.13 mph54%29.86 "Hg10 mi
8:20 AM75 °FSunny.8 mph57%29.86 "Hg10 mi
7:50 AM72 °FPassing clouds.6 mph65%29.86 "HgN/A
7:20 AM70 °FSunny.8 mph69%29.89 "Hg10 mi
6:50 AM68 °FSunny.5 mph69%29.89 "Hg10 mi
6:20 AM63 °FPassing clouds.6 mph83%29.89 "HgN/A
Weather by CustomWeather, © 2015

See weather overviewHow to use our weather pages